FW8285 Weather Reports


time (UTC)temp
C
wind
direction
speed
KPH
gust
KPH
rain 1hr
cm
rain 24hr
cm
rain mn
cm
humidity
%
barometer
mb
20260504050105 6 0 0.0 0.0 0.00 0.00 0.00 72 1009.4
20260504044537 6 0 0.0 1.6 0.00 0.00 0.00 72 1009.5
20260504043040 7 0 0.0 1.6 0.00 0.00 0.00 72 1009.5
20260504041546 7 0 0.0 6.4 0.00 0.00 0.00 71 1009.5
20260504040043 6 0 1.6 8.0 0.00 0.00 0.00 71 1009.9
20260504034548 6 0 0.0 1.6 0.00 0.00 0.00 71 1009.8
20260504033044 5 290 0.0 1.6 0.00 0.00 0.00 72 1009.8
20260504031554 5 0 0.0 0.0 0.00 0.00 0.00 72 1009.6
20260504030046 5 0 0.0 0.0 0.00 0.00 0.00 72 1009.5
20260504024544 5 0 0.0 0.0 0.00 0.00 0.00 70 1009.5
20260504023040 6 0 0.0 0.0 0.00 0.00 0.00 68 1009.4
20260504021537 6 0 0.0 0.0 0.00 0.00 0.00 65 1009.6
20260504020041 7 0 0.0 0.0 0.00 0.00 0.00 62 1009.5
20260504014537 7 0 0.0 0.0 0.00 0.00 0.00 59 1009.4
20260504013046 8 0 0.0 4.8 0.00 0.00 0.00 59 1009.4
20260504011549 8 0 0.0 8.0 0.00 0.00 0.00 57 1009.5
20260504010045 8 0 1.6 11.3 0.00 0.00 0.00 56 1009.3
20260504004541 8 0 0.0 6.4 0.00 0.00 0.00 54 1009.1
20260504003045 9 250 1.6 16.1 0.00 0.00 0.00 51 1009.1
20260504001605 9 262 6.4 19.3 0.00 0.00 0.00 50 1008.9
20260504000047 9 259 4.8 11.3 0.00 0.00 0.00 48 1008.8
20260503234544 10 273 4.8 14.5 0.00 0.00 0.00 46 1008.6
20260503233042 10 278 4.8 14.5 0.00 0.00 0.00 44 1008.3
20260503231548 10 272 8.0 19.3 0.00 0.00 0.00 42 1008.2
20260503230041 11 221 6.4 19.3 0.00 0.00 0.00 40 1008.1
20260503224542 11 275 9.7 27.4 0.00 0.00 0.00 38 1007.8
20260503223045 12 227 9.7 32.2 0.00 0.00 0.00 38 1007.9
20260503221543 12 219 11.3 25.7 0.00 0.00 0.00 36 1007.6
20260503220041 12 280 14.5 27.4 0.00 0.00 0.00 35 1007.6
20260503214550 12 269 11.3 24.1 0.00 0.00 0.00 35 1007.6
20260503213103 12 291 11.3 24.1 0.00 0.00 0.00 35 1007.6
20260503211556 12 257 12.9 24.1 0.00 0.00 0.00 34 1007.6
20260503210044 12 275 9.7 24.1 0.00 0.00 0.00 37 1007.6
20260503204558 12 302 11.3 24.1 0.00 0.00 0.00 36 1007.5
20260503203043 12 223 11.3 27.4 0.00 0.00 0.00 36 1007.8
20260503201542 11 258 9.7 27.4 0.00 0.00 0.00 38 1007.8
20260503200041 11 262 6.4 20.9 0.00 0.00 0.00 43 1008.1
20260503194541 11 249 9.7 19.3 0.00 0.00 0.00 39 1008.2
20260503193036 11 255 4.8 19.3 0.00 0.00 0.00 44 1008.5
20260503191550 10 119 8.0 24.1 0.00 0.00 0.00 44 1008.7
20260503190044 10 271 8.0 24.1 0.00 0.00 0.00 42 1009.0
20260503184558 10 265 8.0 22.5 0.00 0.00 0.00 44 1009.1
20260503183045 10 282 6.4 25.7 0.00 0.00 0.00 45 1009.2
20260503181540 9 246 6.4 20.9 0.00 0.00 0.00 48 1009.4
20260503180040 9 284 6.4 19.3 0.00 0.00 0.00 46 1009.4
20260503174549 9 300 8.0 20.9 0.00 0.00 0.00 45 1009.5
20260503173042 8 275 4.8 17.7 0.00 0.00 0.00 48 1009.6
20260503171541 8 327 8.0 16.1 0.00 0.00 0.00 54 1009.7
20260503081555 1 262 0.0 8.0 0.00 0.05 0.00 84 1010.1
20260503071558 1 217 0.0 3.2 0.00 0.05 0.00 82 1010.3